Location: Izdebno
(52.6670°N, 16.2170°E)
Time: 13:04:36
(UTC+02:00)

A-11 Canister half - Pass Details

Date: 02 March 2024
Orbit: 1525 x 1683 km, 47.3° (Epoch: 24 April)

Event Time Altitude Azimuth Distance (km) Brightness Sun altitude
Rises 23:19:17 0° 276° (W) 4,737 11.8 -43.0°
Reaches altitude 10° 23:22:26 10° 272° (W) 3,735 11.1 -43.2°
Enters shadow 23:24:54 20° 267° (W) 2,992 10.5 -43.3°
